MDT,Max TemperatureF,Mean TemperatureF,Min TemperatureF,Max Dew PointF,MeanDew PointF,Min DewpointF,Max Humidity, Mean Humidity, Min Humidity, Max Sea Level PressureIn, Mean Sea Level PressureIn, Min Sea Level PressureIn, Max VisibilityMiles, Mean VisibilityMiles, Min VisibilityMiles, Max Wind SpeedMPH, Mean Wind SpeedMPH, Max Gust SpeedMPH,PrecipitationIn, CloudCover, Events, WindDirDegrees
2012-10-1,78,58,37,34,30,26,76,46,16,30.31,30.14,29.94,10,10,6,18,9,24,0.00,0,,211
2012-10-2,75,58,40,34,24,10,70,41,12,29.93,29.83,29.73,10,10,10,24,11,31,0.00,0,,216
2012-10-3,48,37,26,31,23,15,78,56,33,30.43,30.19,29.78,10,10,10,28,12,33,0.00,3,,48
2012-10-4,43,30,16,24,20,13,92,66,39,30.42,30.35,30.27,10,10,10,18,5,21,0.00,3,,73
2012-10-5,45,34,22,23,20,14,81,56,31,30.42,30.36,30.29,10,10,10,21,6,25,0.00,5,,63
2012-10-6,49,31,13,13,9,4,80,49,17,30.51,30.38,30.28,10,10,10,12,4,13,0.00,1,,184
2012-10-7,65,43,21,22,15,7,68,42,16,30.30,30.13,29.98,10,10,6,16,8,17,0.00,0,,212
2012-10-8,64,48,31,33,18,13,70,43,16,30.00,29.92,29.81,10,10,10,18,9,25,0.00,1,,183
2012-10-9,59,43,27,32,27,23,78,54,30,30.15,30.05,29.92,10,10,10,18,6,22,0.00,1,,80
2012-10-10,71,50,29,33,25,22,72,46,19,30.08,29.95,29.81,10,10,4,20,7,25,0.00,0,,181
2012-10-11,57,43,29,35,32,28,96,70,43,30.14,30.05,29.94,10,10,6,15,4,20,0.00,2,,100
2012-10-12,74,53,31,29,22,15,75,44,12,29.97,29.85,29.71,10,9,6,23,8,29,0.00,0,,210
2012-10-13,61,52,42,35,28,19,58,43,28,30.18,29.97,29.78,10,10,8,29,10,35,T,5,,228
2012-10-14,68,55,41,32,30,27,62,42,22,30.24,30.12,29.96,10,10,10,22,10,28,0.00,0,,209
2012-10-15,64,54,44,37,34,29,70,55,39,29.94,29.87,29.82,10,10,9,28,12,36,T,4,,226
2012-10-16,58,45,32,46,34,17,86,56,26,29.94,29.66,29.48,10,8,1,46,18,60,0.39,4,Rain-Thunderstorm,246
2012-10-17,50,39,28,21,16,11,63,42,20,30.27,30.09,29.95,10,10,10,24,13,31,0.00,1,,247
2012-10-18,62,43,24,25,20,13,75,48,21,30.36,30.22,30.07,10,9,2,18,5,23,0.00,0,,223
2012-10-19,63,49,34,40,29,21,63,47,30,30.04,29.87,29.65,10,10,9,28,11,33,T,4,,197
2012-10-20,60,47,34,38,29,20,79,51,23,29.76,29.62,29.52,10,10,9,31,13,39,T,3,Snow,208
2012-10-21,49,38,27,24,22,20,81,56,31,29.90,29.82,29.77,10,10,9,15,4,17,T,2,,64
2012-10-22,38,31,24,34,29,21,100,81,61,29.82,29.69,29.59,10,7,1,13,5,15,0.08,6,Snow,36
2012-10-23,39,31,23,30,25,18,92,76,59,29.98,29.79,29.66,10,8,0,31,7,40,0.03,4,Fog-Snow,218
2012-10-24,40,28,18,18,15,12,80,60,40,30.12,30.05,29.99,10,10,10,15,77,17,0.00,1,,209
2012-10-25,31,28,24,,,,,,,,,,,,,10,3,12,0.07,,,
2012-10-26,33,24,15,27,24,19,84,74,63,30.44,30.24,30.12,10,6,1,10,2,13,0.00,6,Snow,202
2012-10-27,43,36,28,32,26,22,96,71,45,30.15,30.09,30.01,10,10,9,18,8,22,0.01,7,Snow,206
2012-10-28,58,46,34,38,35,29,92,66,39,30.00,29.94,29.89,10,10,10,30,15,36,0.04,5,,212
2012-10-29,64,53,41,43,36,31,86,59,32,30.06,29.96,29.90,10,10,10,31,13,39,0.01,5,,215
2012-10-30,63,50,36,36,32,29,82,55,27,30.13,30.05,29.96,10,10,10,14,9,20,0.00,2,,201
2012-10-31,62,50,38,34,30,26,70,49,27,30.07,29.96,29.80,10,10,10,16,6,21,0.00,0,,168